ELY5031 LLBG-LGRP

Flight info

Callsign ELY5031
Flight time 1h 18m
Altitude 38000
Route SUVAS N128 OTHON UN128 RDS UM601 VANES
Aircraft B738/M-VGDW/C

Departure

Time 2026-05-07 15:32
Airport Ben Gurion International Airport (LLBG)

Arrival

Time 2026-05-07 16:50
Airport Rhodes International Airport "Diagoras" (LGRP)
Time Latitude Longitude Altitude Speed Heading
2026-05-07 15:19 32.00262 34.87406 143 ft 0 kts 260°
2026-05-07 15:22 32.00264 34.87430 143 ft 4 kts 270°
2026-05-07 15:22 32.00262 34.87462 143 ft 4 kts 279°
2026-05-07 15:23 32.00259 34.87486 143 ft 4 kts 282°
2026-05-07 15:23 32.00249 34.87515 143 ft 4 kts 303°
2026-05-07 15:23 32.00237 34.87536 143 ft 4 kts 304°
2026-05-07 15:23 32.00222 34.87563 143 ft 3 kts 302°
2026-05-07 15:24 32.00210 34.87589 143 ft 4 kts 290°
2026-05-07 15:24 32.00205 34.87619 143 ft 4 kts 264°
2026-05-07 15:24 32.00213 34.87647 143 ft 4 kts 228°
2026-05-07 15:24 32.00233 34.87665 143 ft 4 kts 212°
2026-05-07 15:25 32.00256 34.87681 143 ft 4 kts 212°
2026-05-07 15:25 32.00279 34.87697 143 ft 3 kts 211°
2026-05-07 15:25 32.00283 34.87699 143 ft 0 kts 211°
2026-05-07 15:27 32.00273 34.87692 143 ft 6 kts 211°
2026-05-07 15:27 32.00192 34.87676 143 ft 18 kts 128°
2026-05-07 15:27 32.00243 34.87771 143 ft 22 kts 31°
2026-05-07 15:27 32.00388 34.87875 143 ft 24 kts 31°
2026-05-07 15:28 32.00502 34.87956 143 ft 14 kts 30°
2026-05-07 15:28 32.00556 34.87919 143 ft 11 kts 310°
2026-05-07 15:28 32.00628 34.87945 143 ft 12 kts 32°
2026-05-07 15:28 32.00718 34.88011 143 ft 22 kts 32°
2026-05-07 15:29 32.00883 34.88131 143 ft 31 kts 31°
2026-05-07 15:29 32.01060 34.88257 143 ft 28 kts 31°
2026-05-07 15:29 32.01221 34.88374 143 ft 26 kts 32°
2026-05-07 15:29 32.01352 34.88504 143 ft 23 kts 46°
2026-05-07 15:30 32.01442 34.88659 143 ft 25 kts 63°
2026-05-07 15:30 32.01501 34.88868 143 ft 26 kts 79°
2026-05-07 15:30 32.01532 34.89074 143 ft 23 kts 79°
2026-05-07 15:30 32.01644 34.89151 143 ft 24 kts 349°
2026-05-07 15:31 32.01742 34.89122 143 ft 9 kts 298°
2026-05-07 15:31 32.01722 34.88944 143 ft 47 kts 259°
2026-05-07 15:31 32.01624 34.88296 143 ft 112 kts 260°
2026-05-07 15:31 32.01452 34.87170 178 ft 163 kts 259°
2026-05-07 15:32 32.01241 34.85794 738 ft 175 kts 260°
2026-05-07 15:32 32.00988 34.84420 1657 ft 169 kts 259°
2026-05-07 15:32 32.00706 34.83054 2406 ft 173 kts 260°
2026-05-07 15:32 32.00415 34.81662 3157 ft 176 kts 261°
2026-05-07 15:33 32.00111 34.80213 3765 ft 192 kts 260°
2026-05-07 15:33 31.99772 34.78583 4176 ft 217 kts 259°
2026-05-07 15:33 31.99394 34.76751 4498 ft 243 kts 261°
2026-05-07 15:33 31.99279 34.74705 5031 ft 259 kts 278°
2026-05-07 15:34 31.99734 34.72630 5822 ft 266 kts 292°
2026-05-07 15:34 32.00450 34.70539 6412 ft 284 kts 293°
2026-05-07 15:34 32.01183 34.68292 6911 ft 304 kts 292°
2026-05-07 15:34 32.01945 34.65879 7353 ft 325 kts 291°
2026-05-07 15:35 32.02729 34.63352 7838 ft 340 kts 290°
2026-05-07 15:35 32.03449 34.60615 8568 ft 348 kts 286°
2026-05-07 15:35 32.04068 34.57847 9339 ft 353 kts 284°
2026-05-07 15:35 32.04655 34.55021 10192 ft 354 kts 284°
2026-05-07 15:36 32.05250 34.52211 11073 ft 354 kts 284°
2026-05-07 15:36 32.05858 34.49392 11953 ft 354 kts 284°
2026-05-07 15:36 32.06473 34.46570 12741 ft 357 kts 284°
2026-05-07 15:36 32.07089 34.43762 13462 ft 360 kts 284°
2026-05-07 15:37 32.07722 34.40888 14187 ft 363 kts 284°
2026-05-07 15:37 32.08361 34.37992 14909 ft 365 kts 285°
2026-05-07 15:37 32.09015 34.35080 15607 ft 368 kts 285°
2026-05-07 15:37 32.09692 34.32161 16295 ft 371 kts 285°
2026-05-07 15:38 32.10351 34.29245 16946 ft 374 kts 285°
2026-05-07 15:38 32.11014 34.26270 17593 ft 376 kts 285°
2026-05-07 15:38 32.11684 34.23236 18232 ft 379 kts 285°
2026-05-07 15:38 32.12350 34.20212 18808 ft 383 kts 285°
2026-05-07 15:39 32.13020 34.17158 19394 ft 385 kts 285°
2026-05-07 15:39 32.13693 34.14089 19969 ft 389 kts 285°
2026-05-07 15:39 32.14372 34.10988 20520 ft 392 kts 285°
2026-05-07 15:39 32.15046 34.07906 21048 ft 395 kts 285°
2026-05-07 15:40 32.15737 34.04751 21606 ft 397 kts 285°
2026-05-07 15:40 32.16536 34.01626 22097 ft 400 kts 291°
2026-05-07 15:40 32.17680 33.98615 22573 ft 403 kts 298°
2026-05-07 15:40 32.19113 33.95759 23044 ft 405 kts 302°
2026-05-07 15:41 32.20689 33.92989 23536 ft 407 kts 304°
2026-05-07 15:41 32.22336 33.90250 23985 ft 410 kts 305°
2026-05-07 15:41 32.23999 33.87497 24421 ft 413 kts 305°
2026-05-07 15:41 32.25670 33.84723 24851 ft 416 kts 305°
2026-05-07 15:42 32.27344 33.81937 25324 ft 417 kts 305°
2026-05-07 15:42 32.29028 33.79131 25753 ft 419 kts 304°
2026-05-07 15:42 32.30715 33.76313 26137 ft 422 kts 304°
2026-05-07 15:42 32.32414 33.73475 26553 ft 423 kts 304°
2026-05-07 15:43 32.34115 33.70628 26928 ft 426 kts 304°
2026-05-07 15:43 32.35827 33.67761 27284 ft 428 kts 304°
2026-05-07 15:43 32.37556 33.64880 27658 ft 430 kts 304°
2026-05-07 15:43 32.39297 33.62005 28010 ft 431 kts 304°
2026-05-07 15:44 32.41042 33.59111 28365 ft 433 kts 304°
2026-05-07 15:44 32.42790 33.56200 28703 ft 435 kts 304°
2026-05-07 15:44 32.44542 33.53275 29027 ft 436 kts 304°
2026-05-07 15:44 32.46297 33.50341 29402 ft 437 kts 304°
2026-05-07 15:45 32.48045 33.47411 29872 ft 434 kts 304°
2026-05-07 15:45 32.49787 33.44491 30327 ft 432 kts 304°
2026-05-07 15:45 32.51515 33.41589 30744 ft 431 kts 304°
2026-05-07 15:45 32.53241 33.38688 31153 ft 430 kts 304°
2026-05-07 15:46 32.56667 33.32922 32014 ft 426 kts 304°
2026-05-07 15:46 32.58370 33.30054 32374 ft 425 kts 305°
2026-05-07 15:46 32.60069 33.27188 32737 ft 424 kts 305°
2026-05-07 15:47 32.61763 33.24329 33105 ft 423 kts 305°
2026-05-07 15:47 32.63451 33.21479 33513 ft 421 kts 305°
2026-05-07 15:47 32.65127 33.18646 33898 ft 419 kts 306°
2026-05-07 15:47 32.66804 33.15810 34217 ft 419 kts 306°
2026-05-07 15:48 32.68476 33.12979 34516 ft 419 kts 306°
2026-05-07 15:48 32.69583 33.11104 34724 ft 419 kts 306°
2026-05-07 15:48 32.71816 33.07319 35129 ft 418 kts 306°
2026-05-07 15:48 32.72943 33.05407 35327 ft 418 kts 306°
2026-05-07 15:49 32.74589 33.02614 35617 ft 418 kts 306°
2026-05-07 15:49 32.76254 32.99786 35903 ft 417 kts 306°
2026-05-07 15:49 32.77911 32.96968 36241 ft 416 kts 306°
2026-05-07 15:49 32.79568 32.94149 36500 ft 416 kts 306°
2026-05-07 15:50 32.81223 32.91332 36761 ft 416 kts 306°
2026-05-07 15:50 32.82875 32.88517 37028 ft 415 kts 305°
2026-05-07 15:50 32.84528 32.85698 37313 ft 414 kts 305°
2026-05-07 15:50 32.86171 32.82893 37608 ft 413 kts 305°
2026-05-07 15:51 32.87808 32.80098 37857 ft 412 kts 305°
2026-05-07 15:51 32.89452 32.77290 38067 ft 413 kts 305°
2026-05-07 15:51 32.91096 32.74477 38085 ft 416 kts 305°
2026-05-07 15:52 32.94392 32.68833 38097 ft 414 kts 305°
2026-05-07 15:52 32.97658 32.63233 38099 ft 410 kts 305°
2026-05-07 15:53 33.00905 32.57656 38099 ft 409 kts 305°
2026-05-07 15:53 33.04148 32.52078 38099 ft 410 kts 305°
2026-05-07 15:54 33.07393 32.46489 38099 ft 410 kts 305°
2026-05-07 15:54 33.10637 32.40891 38108 ft 410 kts 305°
2026-05-07 15:55 33.13874 32.35299 38110 ft 410 kts 306°
2026-05-07 15:55 33.17103 32.29712 38110 ft 409 kts 305°
2026-05-07 15:56 33.20329 32.24121 38102 ft 409 kts 306°
2026-05-07 15:56 33.23557 32.18518 38098 ft 409 kts 306°
2026-05-07 15:57 33.26779 32.12918 38097 ft 409 kts 305°
2026-05-07 15:57 33.30013 32.07327 38097 ft 409 kts 306°
2026-05-07 15:58 33.33232 32.01728 38096 ft 408 kts 306°
2026-05-07 15:58 33.36431 31.96127 38096 ft 406 kts 306°
2026-05-07 15:59 33.39598 31.90573 38095 ft 403 kts 306°
2026-05-07 15:59 33.42763 31.85015 38096 ft 404 kts 306°
2026-05-07 16:00 33.45929 31.79454 38095 ft 404 kts 306°
2026-05-07 16:00 33.49098 31.73879 38095 ft 404 kts 306°
2026-05-07 16:01 33.52256 31.68311 38095 ft 404 kts 306°
2026-05-07 16:01 33.55409 31.62739 38095 ft 404 kts 306°
2026-05-07 16:02 33.58557 31.57165 38095 ft 403 kts 306°
2026-05-07 16:02 33.61698 31.51597 38095 ft 404 kts 306°
2026-05-07 16:03 33.64822 31.46049 38095 ft 403 kts 306°
2026-05-07 16:03 33.68008 31.40449 38095 ft 403 kts 306°
2026-05-07 16:04 33.71156 31.34889 38095 ft 402 kts 306°
2026-05-07 16:04 33.74284 31.29336 38095 ft 401 kts 306°
2026-05-07 16:05 33.77388 31.23818 38095 ft 401 kts 306°
2026-05-07 16:05 33.80539 31.18247 38095 ft 400 kts 306°
2026-05-07 16:06 33.83615 31.12748 38094 ft 399 kts 306°
2026-05-07 16:06 33.86709 31.07197 38095 ft 399 kts 306°
2026-05-07 16:07 33.89787 31.01663 38095 ft 397 kts 306°
2026-05-07 16:07 33.92861 30.96135 38095 ft 396 kts 306°
2026-05-07 16:08 33.95920 30.90626 38102 ft 395 kts 306°
2026-05-07 16:08 33.98975 30.85123 38111 ft 395 kts 306°
2026-05-07 16:09 34.02020 30.79618 38112 ft 395 kts 306°
2026-05-07 16:09 34.05057 30.74116 38116 ft 394 kts 306°
2026-05-07 16:10 34.08088 30.68613 38116 ft 393 kts 306°
2026-05-07 16:10 34.11107 30.63127 38117 ft 392 kts 306°
2026-05-07 16:11 34.14124 30.57637 38117 ft 392 kts 306°
2026-05-07 16:11 34.17162 30.52177 38117 ft 391 kts 306°
2026-05-07 16:12 34.20174 30.46722 38118 ft 391 kts 306°
2026-05-07 16:12 34.23179 30.41256 38118 ft 390 kts 306°
2026-05-07 16:13 34.26171 30.35796 38118 ft 390 kts 306°
2026-05-07 16:13 34.29173 30.30346 38118 ft 389 kts 306°
2026-05-07 16:14 34.32163 30.24896 38119 ft 389 kts 306°
2026-05-07 16:14 34.35137 30.19431 38119 ft 389 kts 306°
2026-05-07 16:15 34.38091 30.13989 38119 ft 389 kts 306°
2026-05-07 16:15 34.41057 30.08516 38120 ft 389 kts 306°
2026-05-07 16:16 34.44051 30.02993 38120 ft 389 kts 306°
2026-05-07 16:16 34.47468 29.97964 38123 ft 386 kts 318°
2026-05-07 16:17 34.51593 29.93895 38121 ft 384 kts 322°
2026-05-07 16:17 34.55776 29.89875 38126 ft 384 kts 321°
2026-05-07 16:18 34.59968 29.85770 38127 ft 385 kts 321°
2026-05-07 16:18 34.64113 29.81673 38125 ft 384 kts 320°
2026-05-07 16:19 34.68236 29.77575 38125 ft 383 kts 320°
2026-05-07 16:19 34.72334 29.73494 38126 ft 383 kts 320°
2026-05-07 16:20 34.76502 29.69380 38125 ft 383 kts 320°
2026-05-07 16:20 34.80630 29.65281 38125 ft 383 kts 320°
2026-05-07 16:21 34.84745 29.61179 38126 ft 382 kts 320°
2026-05-07 16:21 34.88828 29.57099 38126 ft 382 kts 320°
2026-05-07 16:22 34.92940 29.52982 38126 ft 382 kts 320°
2026-05-07 16:22 34.97049 29.48861 38126 ft 382 kts 320°
2026-05-07 16:23 35.01158 29.44734 38127 ft 383 kts 320°
2026-05-07 16:23 35.05265 29.40604 38127 ft 382 kts 320°
2026-05-07 16:24 35.09368 29.36472 38127 ft 382 kts 320°
2026-05-07 16:24 35.13469 29.32336 38128 ft 382 kts 320°
2026-05-07 16:25 35.17574 29.28191 38128 ft 383 kts 319°
2026-05-07 16:25 35.21672 29.24047 38129 ft 383 kts 319°
2026-05-07 16:26 35.25774 29.19893 38129 ft 382 kts 319°
2026-05-07 16:26 35.29868 29.15741 38127 ft 383 kts 319°
2026-05-07 16:26 35.31229 29.14360 37976 ft 385 kts 319°
2026-05-07 16:27 35.33979 29.11567 37506 ft 381 kts 319°
2026-05-07 16:27 35.36016 29.09496 36911 ft 380 kts 319°
2026-05-07 16:27 35.38040 29.07439 36420 ft 377 kts 319°
2026-05-07 16:27 35.40046 29.05396 35989 ft 373 kts 319°
2026-05-07 16:28 35.42031 29.03375 35576 ft 369 kts 319°
2026-05-07 16:28 35.43998 29.01370 35156 ft 365 kts 319°
2026-05-07 16:28 35.45942 28.99387 34747 ft 362 kts 319°
2026-05-07 16:28 35.47870 28.97421 34345 ft 359 kts 319°
2026-05-07 16:29 35.49783 28.95468 34001 ft 361 kts 319°
2026-05-07 16:29 35.51749 28.93459 33754 ft 375 kts 319°
2026-05-07 16:29 35.53791 28.91371 33506 ft 388 kts 319°
2026-05-07 16:29 35.55897 28.89216 33258 ft 400 kts 319°
2026-05-07 16:30 35.58055 28.87007 33009 ft 407 kts 319°
2026-05-07 16:30 35.60237 28.84770 32758 ft 409 kts 319°
2026-05-07 16:30 35.62389 28.82564 32512 ft 408 kts 319°
2026-05-07 16:30 35.64562 28.80334 32260 ft 406 kts 319°
2026-05-07 16:31 35.66731 28.78107 31998 ft 405 kts 319°
2026-05-07 16:31 35.68878 28.75901 31546 ft 399 kts 319°
2026-05-07 16:31 35.70997 28.73722 31052 ft 396 kts 319°
2026-05-07 16:31 35.73098 28.71559 30561 ft 392 kts 319°
2026-05-07 16:32 35.75179 28.69416 30077 ft 389 kts 318°
2026-05-07 16:32 35.77252 28.67280 29601 ft 387 kts 318°
2026-05-07 16:32 35.79308 28.65160 29131 ft 384 kts 318°
2026-05-07 16:32 35.81345 28.63057 28663 ft 381 kts 318°
2026-05-07 16:33 35.83373 28.60962 28196 ft 379 kts 318°
2026-05-07 16:33 35.85385 28.58883 27730 ft 377 kts 318°
2026-05-07 16:33 35.86741 28.57481 27416 ft 375 kts 318°
2026-05-07 16:33 35.88731 28.55422 26952 ft 373 kts 319°
2026-05-07 16:34 35.90712 28.53371 26488 ft 371 kts 319°
2026-05-07 16:34 35.92660 28.51353 26031 ft 369 kts 319°
2026-05-07 16:34 35.94645 28.49295 25564 ft 367 kts 319°
2026-05-07 16:34 35.96566 28.47302 25109 ft 365 kts 319°
2026-05-07 16:35 35.98477 28.45318 24654 ft 363 kts 319°
2026-05-07 16:35 36.00436 28.43283 24187 ft 362 kts 319°
2026-05-07 16:35 36.02355 28.41288 23726 ft 360 kts 319°
2026-05-07 16:35 36.04265 28.39302 23268 ft 358 kts 319°
2026-05-07 16:36 36.06168 28.37321 22809 ft 357 kts 319°
2026-05-07 16:36 36.08065 28.35345 22310 ft 356 kts 319°
2026-05-07 16:36 36.09980 28.33360 21597 ft 361 kts 319°
2026-05-07 16:36 36.11909 28.31366 21040 ft 362 kts 319°
2026-05-07 16:37 36.13836 28.29362 20546 ft 360 kts 319°
2026-05-07 16:37 36.15738 28.27377 20104 ft 357 kts 319°
2026-05-07 16:37 36.17641 28.25385 19428 ft 360 kts 319°
2026-05-07 16:37 36.19554 28.23380 18799 ft 362 kts 319°
2026-05-07 16:38 36.21520 28.21432 18283 ft 360 kts 325°
2026-05-07 16:38 36.23799 28.20189 17793 ft 361 kts 345°
2026-05-07 16:38 36.26298 28.20041 17296 ft 364 kts
2026-05-07 16:38 36.28691 28.21007 16773 ft 361 kts 25°
2026-05-07 16:39 36.30707 28.22831 15791 ft 359 kts 39°
2026-05-07 16:39 36.32530 28.24951 14702 ft 358 kts 40°
2026-05-07 16:39 36.34342 28.27020 13740 ft 352 kts 39°
2026-05-07 16:39 36.36132 28.29055 12787 ft 345 kts 40°
2026-05-07 16:40 36.37896 28.31045 11837 ft 340 kts 40°
2026-05-07 16:40 36.39489 28.33175 10874 ft 337 kts 53°
2026-05-07 16:40 36.40414 28.35821 9961 ft 335 kts 76°
2026-05-07 16:40 36.40586 28.38639 9475 ft 319 kts 88°
2026-05-07 16:41 36.40536 28.41273 9111 ft 301 kts 90°
2026-05-07 16:41 36.40490 28.43822 8726 ft 285 kts 90°
2026-05-07 16:41 36.40449 28.46261 8087 ft 281 kts 90°
2026-05-07 16:41 36.40422 28.48645 7426 ft 278 kts 87°
2026-05-07 16:42 36.40768 28.50977 6720 ft 274 kts 64°
2026-05-07 16:42 36.41975 28.52741 6041 ft 270 kts 32°
2026-05-07 16:42 36.43709 28.53330 5691 ft 254 kts 357°
2026-05-07 16:42 36.45301 28.52628 5349 ft 241 kts 322°
2026-05-07 16:43 36.46260 28.50955 4735 ft 242 kts 290°
2026-05-07 16:43 36.46545 28.48906 4185 ft 241 kts 272°
2026-05-07 16:43 36.46591 28.46846 3668 ft 237 kts 271°
2026-05-07 16:43 36.46521 28.44794 3139 ft 236 kts 265°
2026-05-07 16:44 36.46360 28.42756 2798 ft 246 kts 265°
2026-05-07 16:44 36.46192 28.40624 2577 ft 246 kts 265°
2026-05-07 16:44 36.46032 28.38558 2499 ft 235 kts 265°
2026-05-07 16:44 36.45880 28.36584 2433 ft 224 kts 265°
2026-05-07 16:45 36.45736 28.34710 2393 ft 211 kts 265°
2026-05-07 16:45 36.45601 28.32949 2326 ft 199 kts 265°
2026-05-07 16:45 36.45473 28.31287 2260 ft 187 kts 265°
2026-05-07 16:45 36.45353 28.29715 2224 ft 176 kts 265°
2026-05-07 16:46 36.45243 28.28264 2166 ft 165 kts 265°
2026-05-07 16:46 36.45133 28.26831 2137 ft 168 kts 265°
2026-05-07 16:46 36.45022 28.25401 2092 ft 166 kts 265°
2026-05-07 16:46 36.44911 28.23959 2052 ft 168 kts 265°
2026-05-07 16:47 36.44726 28.22550 1987 ft 166 kts 252°
2026-05-07 16:47 36.44289 28.21262 1934 ft 157 kts 248°
2026-05-07 16:47 36.43893 28.20026 1747 ft 152 kts 250°
2026-05-07 16:47 36.43528 28.18813 1522 ft 148 kts 251°
2026-05-07 16:48 36.43178 28.17631 1321 ft 144 kts 250°
2026-05-07 16:48 36.42837 28.16471 1127 ft 142 kts 250°
2026-05-07 16:48 36.42503 28.15332 931 ft 140 kts 250°
2026-05-07 16:48 36.42174 28.14212 735 ft 139 kts 250°
2026-05-07 16:49 36.41854 28.13077 548 ft 139 kts 250°
2026-05-07 16:49 36.41511 28.11935 361 ft 140 kts 250°
2026-05-07 16:49 36.41178 28.10820 167 ft 140 kts 250°
2026-05-07 16:49 36.40847 28.09685 38 ft 134 kts 250°
2026-05-07 16:50 36.40555 28.08688 28 ft 99 kts 250°
2026-05-07 16:50 36.40392 28.08137 28 ft 44 kts 250°
2026-05-07 16:50 36.40262 28.07939 28 ft 24 kts 219°
2026-05-07 16:50 36.40162 28.07859 28 ft 13 kts 161°
2026-05-07 16:51 36.40163 28.07980 28 ft 19 kts 70°
2026-05-07 16:51 36.40207 28.08129 28 ft 18 kts 69°
2026-05-07 16:51 36.40250 28.08272 28 ft 19 kts 70°
2026-05-07 16:51 36.40291 28.08412 28 ft 20 kts 70°
2026-05-07 16:52 36.40340 28.08580 28 ft 17 kts 70°
2026-05-07 16:52 36.40354 28.08627 28 ft 4 kts 70°
2026-05-07 16:52 36.40364 28.08661 28 ft 4 kts 70°
2026-05-07 16:52 36.40374 28.08695 28 ft 4 kts 70°
2026-05-07 16:53 36.40386 28.08735 28 ft 8 kts 70°
2026-05-07 16:53 36.40399 28.08800 28 ft 8 kts 86°
2026-05-07 16:53 36.40370 28.08848 28 ft 7 kts 157°
2026-05-07 16:53 36.40323 28.08869 28 ft 5 kts 160°
2026-05-07 16:54 36.40305 28.08877 28 ft 1 kts 160°
2026-05-07 16:54 36.40292 28.08883 28 ft 1 kts 160°
2026-05-07 16:54 36.40291 28.08884 28 ft 0 kts 160°